Location: Góry Miechowskie
(50.3599°N, 20.1803°E)
Time: 22:03:39
(UTC+00:00)

Tiros 1 despin weight - Pass Details

Date: 13 September 2024
Orbit: 572 x 614 km, 48.2° (Epoch: 12 October)

Event Time Altitude Azimuth Distance (km) Brightness Sun altitude
Rises 08:35:22 0° 279° (W) 2,886 ? 36.8°
Reaches altitude 10° 08:38:14 10° 261° (W) 1,974 ? 37.1°
Maximum altitude 08:41:23 19° 217° (SW) 1,480 ? 37.4°
Drops below altitude 10° 08:44:30 10° 173° (S) 1,953 ? 37.7°
Sets 08:47:20 0° 155° (SSE) 2,844 ? 38.0°
